Bedminster, NJ

11:34 AM EST on December 06, 2016 (GMT -0500)
Somerset

Weather History for KSMQ - May, 2012

Change the Weather History Date:

Thursday, May 3, 2012

  Actual Average Record
Temperature  
Mean Temperature 56 °F -  
Max Temperature 61 °F 69 °F 91 °F (2001)
Min Temperature 50 °F 44 °F 30 °F (1941)
Degree Days  
Heating Degree Days 10    
Growing Degree Days 6 (Base 50)    
Moisture  
Dew Point 52 °F    
Average Humidity 90    
Maximum Humidity 100    
Minimum Humidity 77    
Precipitation  
Precipitation 0.20 in - - ()
Sea Level Pressure  
Sea Level Pressure 30.11 in    
Wind  
Wind Speed 2 mph (SSE)    
Max Wind Speed 7 mph    
Max Gust Speed -    
Visibility 7 miles    
Events Rain    
Averages and records for this station are not official NWS values.
T = Trace of Precipitation, MM = Missing Value Source: NWS Daily Summary

Daily Weather History Graph

Daily Weather History Graph

Search for Another Location

Airport or City:

Trip Planner

Search our weather history database for the weather conditions in past years. The results will help you decide how hot, cold, wet, or windy it might be!

Date:

Astronomy

May. 03, 2012 Rise Set
Actual Time 5:54 AM EDT 7:57 PM EDT
Civil Twilight 5:24 AM EDT 8:27 PM EDT
Nautical Twilight 4:48 AM EDT 9:03 PM EDT
Astronomical Twilight 4:08 AM EDT 9:43 PM EDT
Moon 5:17 PM EDT (5/3) 3:57 AM EDT (5/3)
Length of Visible Light 15h 02m
Length of Day
14h 02m
Waxing Gibbous, 91% of the Moon is Illuminated
May 3
Waxing Gibbous
May 5
Full
May 12
Last Quarter
May 20
New
May 28
First Quarter

Hourly Weather History & Observations

Time (EDT) Temp. Dew Point Humidity Pressure Visibility Wind Dir Wind Speed Gust Speed Precip Events Conditions
12:49 AM 51.8 °F 48.2 °F 88% 30.13 in 10.0 mi South 4.6 mph - N/A   Overcast
12:53 AM 51.1 °F 48.9 °F 92% 30.14 in 10.0 mi South 4.6 mph - N/A   Overcast
1:53 AM 51.1 °F 48.9 °F 92% 30.17 in 2.0 mi Calm Calm - 0.05 in Rain Rain
2:01 AM 50.0 °F 48.2 °F 94% 30.16 in 1.8 mi Calm Calm - 0.06 in Rain Heavy Rain
2:06 AM 50.0 °F 48.2 °F 94% 30.15 in 2.5 mi Calm Calm - 0.06 in Rain Light Rain
2:14 AM 50.0 °F 48.2 °F 94% 30.14 in 5.0 mi SSE 4.6 mph - 0.06 in Rain Light Rain
2:30 AM 50.0 °F 48.2 °F 94% 30.12 in 5.0 mi SSE 4.6 mph - 0.08 in Rain Light Rain
2:53 AM 50.0 °F 48.9 °F 96% 30.11 in 7.0 mi South 6.9 mph - 0.10 in Rain Light Rain
3:02 AM 50.0 °F 48.2 °F 94% 30.10 in 7.0 mi South 3.5 mph - 0.01 in Rain Light Rain
3:53 AM 50.0 °F 48.9 °F 96% 30.11 in 10.0 mi Calm Calm - 0.02 in   Overcast
4:39 AM 50.0 °F 48.2 °F 94% 30.09 in 9.0 mi Calm Calm - 0.02 in   Overcast
4:49 AM 51.8 °F 48.2 °F 88% 30.10 in 9.0 mi Calm Calm - 0.02 in   Overcast
4:53 AM 50.0 °F 48.9 °F 96% 30.11 in 9.0 mi Calm Calm - 0.02 in   Overcast
5:53 AM 51.1 °F 48.9 °F 92% 30.12 in 9.0 mi Calm Calm - N/A   Overcast
6:53 AM 51.1 °F 50.0 °F 96% 30.14 in 5.0 mi Calm Calm - 0.01 in   Overcast
7:11 AM 51.8 °F 50.0 °F 94% 30.13 in 6.0 mi Calm Calm - N/A   Overcast
8:29 AM 51.8 °F 51.8 °F 100% 30.13 in 8.0 mi Calm Calm - N/A   Overcast
8:53 AM 53.1 °F 51.1 °F 93% 30.14 in 10.0 mi Calm Calm - N/A   Overcast
9:00 AM 53.6 °F 50.0 °F 88% 30.13 in 10.0 mi Calm Calm - N/A   Overcast
9:53 AM 54.0 °F 51.1 °F 90% 30.13 in 10.0 mi Calm Calm - N/A   Overcast
10:53 AM 55.0 °F 52.0 °F 89% 30.13 in 10.0 mi Calm Calm - N/A   Overcast
11:53 AM 57.0 °F 53.1 °F 87% 30.13 in 10.0 mi Calm Calm - N/A   Overcast
12:01 PM 57.2 °F 51.8 °F 82% 30.13 in 10.0 mi Calm Calm - N/A   Overcast
12:53 PM 57.9 °F 54.0 °F 87% 30.12 in 10.0 mi South 4.6 mph - N/A   Overcast
1:53 PM 59.0 °F 54.0 °F 83% 30.11 in 10.0 mi Variable 3.5 mph - N/A   Overcast
2:53 PM 60.8 °F 53.6 °F 77% 30.09 in 10.0 mi South 4.6 mph - N/A   Overcast
3:53 PM 61.0 °F 55.0 °F 81% 30.09 in 10.0 mi South 3.5 mph - N/A   Overcast
4:29 PM 60.8 °F 55.4 °F 82% 30.08 in 10.0 mi Calm Calm - N/A   Overcast
4:53 PM 61.0 °F 55.0 °F 81% 30.08 in 10.0 mi Calm Calm - N/A   Overcast
5:53 PM 61.0 °F 55.0 °F 81% 30.08 in 10.0 mi Calm Calm - N/A   Overcast
6:53 PM 60.1 °F 55.0 °F 83% 30.05 in 8.0 mi Calm Calm - N/A   Overcast
7:53 PM 59.0 °F 55.0 °F 87% 30.07 in 8.0 mi Calm Calm - N/A   Overcast
8:53 PM 59.0 °F 55.0 °F 87% 30.07 in 8.0 mi Calm Calm - N/A   Overcast
9:53 PM 57.0 °F 55.0 °F 93% 30.08 in 3.0 mi SSE 3.5 mph - N/A   Overcast
10:02 PM 57.2 °F 55.4 °F 94% 30.08 in 2.5 mi Calm Calm - N/A   Overcast
10:15 PM 55.4 °F 55.4 °F 100% 30.08 in 2.5 mi Calm Calm - N/A   Overcast
10:44 PM 55.4 °F 53.6 °F 94% 30.06 in 3.0 mi East 4.6 mph - N/A   Overcast
10:53 PM 55.0 °F 54.0 °F 96% 30.06 in 4.0 mi Calm Calm - N/A   Overcast
11:36 PM 55.4 °F 53.6 °F 94% 30.08 in 2.0 mi Calm Calm - N/A   Overcast
11:53 PM 55.0 °F 54.0 °F 96% 30.08 in 2.5 mi Calm Calm - N/A   Overcast